Back to catalog

STARLINK-11092

AliveCommunicationsVLEO
NORAD 59710·PAYLOAD·🇺🇸 United States

Launched May 10, 2024 from Vandenberg Space Force Base

Loading…

Next Passes (next 24 hours)

TLE

FreshSource: CelesTrak SupGP

Epoch: Sep 14, 2026, 14:19 UTC

1 59710C 24088C   26257.59701389  .00069162  00000+0  57000-3 0  2573
2 59710  53.1564 115.2760 0001217 104.1191  85.3159 15.69662362    16

Track STARLINK-11092 in real time with AllMySat

Download on the App Store